Regional Weather Roundup
Issued by NWS Green Bay, WI

Home | Current Version | Previous Version | Graphics & Text | Print | Product List | Glossary Off
Versions: 1 2 3 4 5 6 7 8 9 10 11 12 13 14 15 16 17 18 19 20 21 22 23 24 25 26 27 28 29 30 31 32 33 34 35 36 37 38 39 40 41 42 43 44 45 46 47 48 49 50

000
ASUS43 KGRB 260411
RWRGRB

NORTH-CENTRAL AND NORTHEAST WISCONSIN REGIONAL WEATHER ROUNDUP
NATIONAL WEATHER SERVICE GREEN BAY WI
1000 PM CST SAT FEB 25 2017

WIZ005-009-010>012-018-019-260500-
NORTH CENTRAL WISCONSIN

CITY           SKY/WX    TMP DP  RH WIND       PRES   REMARKS
IRONWOOD       CLOUDY    22  13  68 SW9       29.75F
MANITOWISH WTR CLOUDY    17  10  74 SW6       29.76F WCI   9
ARBOR VITAE    CLOUDY    19  10  68 SW7         N/A
EAGLE RIVER    CLOUDY    18   8  66 SW8       29.78S WCI   7
LAND O LAKES   CLOUDY    15  10  81 SW3       29.78S
RHINELANDER    CLOUDY    19   8  62 SW8       29.80S WCI   9
PHILLIPS       MOCLDY    20  11  68 SW7       29.79S
ANTIGO         CLEAR     12   6  74 SW9       29.84S WCI   0
TOMAHAWK       MOCLDY    18   9  70 S3        29.82S
MERRILL        NOT AVBL
$$

WIZ013-073-260500-
NORTHEAST WISCONSIN

CITY           SKY/WX    TMP DP  RH WIND       PRES   REMARKS
IRON MOUNTAIN  CLOUDY    14   7  73 CALM      29.81R
MARINETTE      CLEAR     14   8  77 W6        29.90R WCI   5
OCONTO         CLEAR     17   7  65 SW6       29.91R WCI   9
$$

WIZ017-030-035>037-045-260500-
CENTRAL WISCONSIN

CITY           SKY/WX    TMP DP  RH WIND       PRES   REMARKS
MEDFORD        CLEAR     16   8  70 SW7       29.83S WCI   7
WAUSAU         CLEAR     18   8  65 SW9       29.86S WCI   7
MOSINEE        CLEAR     16   9  73 SW9       29.88S WCI   4
MARSHFIELD     CLEAR     18  10  71 SW10      29.87R WCI   6
WISC RAPIDS    CLEAR     17  10  74 SW7       29.92S WCI   8
STEVENS POINT  CLEAR     15   8  72 SW6       29.91S WCI   7
WAUPACA        CLEAR     17   9  69 SW7       29.94R WCI   8
SHAWANO        CLEAR     18   9  65 CALM      29.91S
CLINTONVILLE   CLEAR     14   7  73 CALM      29.92R
WAUTOMA        NOT AVBL
$$

WIZ038-039-048-051-260500-
FOX VALLEY

CITY           SKY/WX    TMP DP  RH WIND       PRES   REMARKS
NWS GREEN BAY  CLEAR     20  10  65 W10       29.93R WCI   9
APPLETON       PTCLDY    19   9  63 SW10      29.92R WCI   8
OSHKOSH        CLEAR     20   9  62 W7        29.94R
FOND DU LAC    CLEAR     18   9  68 SW7       29.96S WCI   9
$$

WIZ022-050-052-260500-
EAST CENTRAL WISCONSIN

CITY           SKY/WX    TMP DP  RH WIND       PRES   REMARKS
EPHRAIM        FAIR      21  15  77 W6        29.87R
WASHINGTON ISL FAIR      24  13  63 W8        29.87R
STURGEON BAY   CLEAR     18  10  71 SW10      29.91R WCI   6
MANITOWOC      CLEAR     19  11  70 W12       29.94R WCI   7
SHEBOYGAN      CLEAR     20  10  65 W13       29.95R WCI   7
$$

LMZ563-521-522-541>543-260500-
LAKESHORE

STATION/POSITION TIME  TEMP    WIND        PRES    VSBY  WAVE
                       AIR SEA DIR/SP/G                  HT/PER
                 (UTC) (F)     (DEG/KT/KT) (MB)    (MI)  (FT/S)
SHEBOYGAN LKSHOR 0400   22     270/ 14/ 17 1015.3R
KEWAUNEE LKSHORE 0348   21     280/ 10/ 13 1012.9R
NORTHPORT PIER   0340   20        CALM     1011.9R
SISTER BAY LKSHO 0335   20        CALM       N/A
MENOMINEE LKSHOR 0348   19     230/ 10/ 12 1011.6R
$$




USA.gov is the U.S. government's official web portal to all federal, state and local government web resources and services.